Location: Unspecified
(43.4354°N, 0.0000°E)
Time: 14:38:47
(UTC+00:00)

Courier 1B - Pass Details

Date: 24 June 2019
Orbit: 963 x 1209 km, 28.3° (Epoch: 16 July)

Event Time Altitude Azimuth Distance (km) Brightness Sun altitude
Rises 16:41:18 0° 211° (SSW) 3,733 10.9 30.3°
Reaches altitude 10° 16:45:26 10° 187° (S) 2,835 10.0 29.5°
Maximum altitude 16:48:45 14° 158° (SSE) 2,596 9.6 28.9°
Drops below altitude 10° 16:52:08 10° 130° (SE) 2,928 9.6 28.3°
Sets 16:56:33 0° 106° (ESE) 3,946 10.1 27.5°
